Location: Newark
(48.3453°N, 0.5589°E)
Time: 12:26:42
(UTC+00:00)

A-11 Canister half - Pass Details

Date: 15 December 2019
Orbit: 1516 x 1683 km, 47.2° (Epoch: 19 January)

Event Time Altitude Azimuth Distance (km) Brightness Sun altitude
Rises 12:13:31 0° 250° (WSW) 4,734 11.9 18.2°
Reaches altitude 10° 12:16:33 10° 249° (WSW) 3,772 11.5 18.2°
Maximum altitude 12:26:09 78° 166° (SSE) 1,651 9.7 18.0°
Drops below altitude 10° 12:36:08 10° 82° (E) 3,908 11.0 17.7°
Sets 12:39:19 0° 81° (E) 4,911 11.4 17.6°
